Weather History for Stillwater, OK

Change the Weather History Date:

Sunday, January 12, 2014

  Actual Average Record
Temperature  
Mean Temperature 54 °F -  
Max Temperature 73 °F 44 °F 73 °F (2014)
Min Temperature 35 °F 24 °F 7 °F (2011)
Degree Days  
Heating Degree Days 11    
Growing Degree Days 4 (Base 50)    
Moisture  
Dew Point 28 °F    
Average Humidity 36    
Maximum Humidity 64    
Minimum Humidity 19    
Precipitation  
Precipitation 0.00 in - - ()
Sea Level Pressure  
Sea Level Pressure 29.69 in    
Wind  
Wind Speed 13 mph (SSW)    
Max Wind Speed 28 mph    
Max Gust Speed 39 mph    
Visibility 10 miles    
Events      
Averages and records for this station are not official NWS values.
T = Trace of Precipitation, MM = Missing Value Source: NWS Daily Summary

Daily Weather History Graph

Daily Weather History Graph

Search for Another Location

Airport:

Trip Planner

Search our weather history database for the weather conditions in past years. The results will help you decide how hot, cold, wet, or windy it might be!

Date:

Astronomy

Jan. 12, 2014 Rise Set
Actual Time 7:39 AM CST 5:34 PM CST
Civil Twilight 7:11 AM CST 6:02 PM CST
Nautical Twilight 6:39 AM CST 6:34 PM CST
Astronomical Twilight 6:08 AM CST 7:05 PM CST
Moon 3:02 PM CST (1/12) 4:39 AM CST (1/12)
Length of Visible Light 10h 51m
Length of Day
9h 55m
Waxing Gibbous, 90% of the Moon is Illuminated
Jan 12
Waxing Gibbous
Jan 15
Full
Jan 23
Last Quarter
Jan 30
New
Feb 6
First Quarter

Hourly Weather History & Observations

Time (CST) Temp. Windchill Dew Point Humidity Pressure Visibility Wind Dir Wind Speed Gust Speed Precip Events Conditions
12:53 AM 37.9 °F 33.5 °F 24.1 °F 57% 29.90 in 10.0 mi SSE 5.8 mph - N/A   Clear
1:53 AM 36.0 °F 31.1 °F 24.1 °F 62% 29.87 in 10.0 mi SE 5.8 mph - N/A   Clear
2:53 AM 35.1 °F 29.3 °F 24.1 °F 64% 29.86 in 10.0 mi SSE 6.9 mph - N/A   Clear
3:53 AM 36.0 °F 30.3 °F 24.1 °F 62% 29.84 in 10.0 mi SSE 6.9 mph - N/A   Clear
4:53 AM 41.0 °F 35.2 °F 25.0 °F 53% 29.81 in 10.0 mi South 9.2 mph - N/A   Clear
5:53 AM 45.0 °F 41.2 °F 24.1 °F 44% 29.78 in 10.0 mi South 6.9 mph - N/A   Clear
6:53 AM 51.1 °F - 25.0 °F 36% 29.76 in 10.0 mi South 16.1 mph 21.9 mph N/A   Clear
7:53 AM 53.1 °F - 25.0 °F 34% 29.74 in 10.0 mi SSW 20.7 mph 27.6 mph N/A   Clear
8:53 AM 57.0 °F - 26.1 °F 30% 29.72 in 10.0 mi SSW 17.3 mph 28.8 mph N/A   Clear
9:53 AM 61.0 °F - 27.0 °F 27% 29.72 in 10.0 mi SSW 23.0 mph 35.7 mph N/A   Clear
10:53 AM 64.9 °F - 27.0 °F 24% 29.72 in 10.0 mi SSW 19.6 mph 29.9 mph N/A   Clear
11:53 AM 68.0 °F - 27.0 °F 21% 29.66 in 10.0 mi SSW 25.3 mph 39.1 mph N/A   Clear
12:53 PM 71.1 °F - 28.0 °F 20% 29.60 in 10.0 mi SSW 27.6 mph 39.1 mph N/A   Clear
1:53 PM 73.0 °F - 28.0 °F 19% 29.57 in 10.0 mi SSW 24.2 mph 35.7 mph N/A   Clear
2:53 PM 73.9 °F - 28.9 °F 19% 29.55 in 10.0 mi SSW 23.0 mph 38.0 mph N/A   Clear
3:53 PM 73.9 °F - 30.0 °F 20% 29.55 in 10.0 mi SSW 26.5 mph 39.1 mph N/A   Clear
4:53 PM 72.0 °F - 30.9 °F 22% 29.54 in 10.0 mi SSW 25.3 mph 33.4 mph N/A   Clear
5:53 PM 68.0 °F - 30.9 °F 25% 29.55 in 10.0 mi South 15.0 mph - N/A   Clear
6:53 PM 64.9 °F - 30.9 °F 28% 29.54 in 10.0 mi South 16.1 mph - N/A   Clear
7:53 PM 64.9 °F - 32.0 °F 29% 29.53 in 10.0 mi South 15.0 mph 25.3 mph N/A   Clear
8:53 PM 63.0 °F - 33.1 °F 33% 29.59 in 10.0 mi West 10.4 mph 23.0 mph N/A   Clear
9:21 PM 57.2 °F - 30.2 °F 36% 29.64 in 10.0 mi NNW 18.4 mph 27.6 mph N/A   Clear
9:53 PM 54.0 °F - 30.9 °F 41% 29.65 in 10.0 mi NNW 19.6 mph 31.1 mph N/A   Clear
10:53 PM 50.0 °F - 32.0 °F 50% 29.70 in 10.0 mi NNW 17.3 mph 24.2 mph N/A   Clear
11:53 PM 48.9 °F - 32.0 °F 52% 29.75 in 10.0 mi NNW 11.5 mph 20.7 mph N/A   Clear